This demonstration page uses our WeatherBlox Daily Observations layout. Learn more.

Left ArrowRight Arrow

Hourly Observations for October 13, 2021

Temp ( °F °C ) Dew Point ( °F °C ) Humidity (%) Winds ( mph kmh ) Pressure ( in mb ) Visibility ( mi km ) Precip ( " mm )
12:26 am 00:26 Cloudy with Nearby Thunderstorms 63 17.2 52 11.1 68 68 SSE 21 33 29.57 1001 10 16 0.00 0.00
12:48 am 00:48 Cloudy with Strong Thunderstorms 61 16 55 13 83 83 WSW 12 19 29.63 1004 2 3 0.15 3.81
12:53 am 00:53 Cloudy with Thunderstorms 59 15 56 13.3 90 90 WSW 13 20 29.66 1004 2 3 0.18 4.57
12:58 am 00:58 Cloudy with Strong Thunderstorms 57 13.9 56 13.3 96 96 WSW 9 15 29.67 1005 2 3 0.11 2.79
1:22 am 01:22 Cloudy with Thunderstorms 57 13.9 56 13.3 96 96 N N/A 29.64 1004 2 3 0.30 7.62
1:32 am 01:32 Cloudy with Nearby Thunderstorms 57 13.9 56 13.3 96 96 ESE 7 11 29.64 1004 5 8 0.34 8.64
1:42 am 01:42 Cloudy with Thunderstorms 57 13.9 56 13.3 96 96 E 8 13 29.63 1003 3 5 0.41 10.41
1:53 am 01:53 Cloudy with Thunderstorms 57 13.9 57 13.9 100 100 E 8 13 29.58 1002 3 5 0.48 12.19
2:00 am 02:00 Cloudy with Nearby Thunderstorms 57 14 57 14 100 100 E 9 15 29.60 1002 4 6 N/A
2:07 am 02:07 Cloudy with Thunderstorms 57 13.9 57 13.9 100 100 ESE 9 15 29.60 1002 4 6 0.07 1.78
2:45 am 02:45 Cloudy with Rain 57 13.9 56 13.3 96 96 ESE 20 31 29.48 998 5 8 0.23 5.84
2:53 am 02:53 Cloudy with Light Rain 57 13.9 55 12.8 93 93 E 21 33 29.41 996 9 14 0.24 6.10
3:53 am 03:53 Mostly Cloudy 58 14.4 56 13.3 93 93 S 12 19 29.47 998 10 16 0.00 0.00
4:27 am 04:27 Mostly Cloudy 57 13.9 56 13.3 96 96 SSE 16 26 29.46 998 10 16 N/A
4:53 am 04:53 Mostly Cloudy 57 13.9 56 13.3 96 96 SE 13 20 29.41 996 10 16 N/A
5:53 am 05:53 Cloudy with Mist and Fog 58 14.4 58 14.4 100 100 S 13 20 29.45 997 5 8 N/A
6:21 am 06:21 Cloudy with Light Rain 59 15 58 14.4 96 96 S 15 24 29.46 998 5 8 0.01 0.25
6:49 am 06:49 Cloudy 57 14 55 13 94 94 SSW 17 28 29.49 999 10 16 0.02 0.51
6:53 am 06:53 Cloudy 58 14.4 55 12.8 90 90 SSW 15 24 29.48 998 10 16 0.02 0.51
7:07 am 07:07 Partly Cloudy 57 13.9 55 12.8 93 93 SSW 12 19 29.49 999 10 16 N/A
7:26 am 07:26 Mostly Cloudy 56 13.3 55 12.8 97 97 SW 13 20 29.50 999 10 16 N/A
7:49 am 07:49 Mostly Sunny 52 11 45 7 77 77 W 22 35 29.55 1001 10 16 N/A
7:53 am 07:53 Mostly Sunny 50 10 44 6.7 80 80 W 26 43 29.54 1000 10 16 N/A
8:53 am 08:53 Sunny 47 8.3 41 5 80 80 WSW 13 20 29.58 1002 10 16 N/A
9:53 am 09:53 Sunny 47 8.3 37 2.8 69 69 W 16 26 29.61 1003 10 16 N/A
10:53 am 10:53 Sunny 50 10 38 3.3 63 63 WSW 15 24 29.62 1003 10 16 N/A
11:53 am 11:53 Sunny 53 11.7 36 2.2 52 52 WSW 24 39 29.63 1003 10 16 N/A
12:53 pm 12:53 Sunny 56 13.3 35 1.7 46 46 W 28 44 29.64 1004 10 16 N/A
1:53 pm 13:53 Sunny 59 15 33 0.6 38 38 W 29 46 29.65 1004 10 16 N/A
2:53 pm 14:53 Sunny 60 15.6 32 undefined 35 35 W 30 48 29.64 1004 10 16 N/A
3:53 pm 15:53 Sunny 62 16.7 32 undefined 32 32 W 26 43 29.66 1004 10 16 N/A
4:53 pm 16:53 Sunny 61 16.1 31 -0.6 32 32 W 24 39 29.69 1005 10 16 N/A
5:53 pm 17:53 Sunny 60 15.6 30 -1.1 32 32 W 22 35 29.71 1006 10 16 N/A
6:53 pm 18:53 Sunny 56 13.3 32 undefined 40 40 W 10 17 29.75 1007 10 16 N/A
7:53 pm 19:53 Clear 53 11.7 33 0.6 47 47 W 10 17 29.80 1009 10 16 N/A
8:53 pm 20:53 Clear 49 9.4 34 1.1 56 56 WSW 8 13 29.84 1011 10 16 N/A
9:53 pm 21:53 Clear 48 8.9 34 1.1 58 58 W 13 20 29.87 1011 10 16 N/A
10:53 pm 22:53 Clear 48 8.9 32 undefined 54 54 WNW 15 24 29.86 1011 10 16 N/A
11:53 pm 23:53 Clear 46 7.8 32 undefined 58 58 W 8 13 29.90 1012 10 16 N/A

Powered by AerisWeather